TimeCDT,TemperatureF,Dew PointF,Humidity,Sea Level PressureIn,VisibilityMPH,Wind Direction,Wind SpeedMPH,Gust SpeedMPH,PrecipitationIn,Events,Conditions,WindDirDegrees,DateUTC
12:53 AM,43.0,30.9,62,30.37,10.0,NNW,10.4,-,N/A,,Mostly Cloudy,340,2012-10-07 05:53:00
1:53 AM,41.0,30.9,67,30.37,10.0,North,8.1,-,N/A,,Scattered Clouds,360,2012-10-07 06:53:00
2:53 AM,37.9,32.0,79,30.38,10.0,NNW,4.6,-,N/A,,Partly Cloudy,330,2012-10-07 07:53:00
3:53 AM,34.0,30.9,89,30.37,10.0,NW,5.8,-,N/A,,Partly Cloudy,310,2012-10-07 08:53:00
4:53 AM,35.1,32.0,89,30.37,10.0,NW,5.8,-,N/A,,Partly Cloudy,320,2012-10-07 09:53:00
5:53 AM,36.0,32.0,86,30.36,10.0,NNW,8.1,-,N/A,,Scattered Clouds,340,2012-10-07 10:53:00
6:53 AM,34.0,30.9,89,30.38,10.0,NNW,4.6,-,N/A,,Scattered Clouds,340,2012-10-07 11:53:00
7:53 AM,34.0,30.9,89,30.38,10.0,NNW,5.8,-,N/A,,Scattered Clouds,340,2012-10-07 12:53:00
8:53 AM,37.9,33.1,83,30.38,10.0,North,4.6,-,N/A,,Mostly Cloudy,350,2012-10-07 13:53:00
9:53 AM,43.0,34.0,71,30.38,10.0,NE,3.5,-,N/A,,Scattered Clouds,40,2012-10-07 14:53:00
10:53 AM,46.9,30.9,54,30.36,10.0,NE,3.5,-,N/A,,Mostly Cloudy,40,2012-10-07 15:53:00
11:53 AM,48.9,28.0,44,30.34,10.0,Calm,Calm,-,N/A,,Mostly Cloudy,0,2012-10-07 16:53:00
12:53 PM,53.1,26.1,35,30.32,10.0,Calm,Calm,-,N/A,,Scattered Clouds,0,2012-10-07 17:53:00
1:53 PM,55.0,26.1,33,30.28,10.0,SW,8.1,-,N/A,,Scattered Clouds,230,2012-10-07 18:53:00
2:53 PM,55.9,27.0,33,30.25,10.0,WNW,8.1,-,N/A,,Scattered Clouds,300,2012-10-07 19:53:00
3:53 PM,55.9,27.0,33,30.22,10.0,SW,9.2,-,N/A,,Scattered Clouds,230,2012-10-07 20:53:00
4:53 PM,55.9,27.0,33,30.20,10.0,West,5.8,17.3,N/A,,Scattered Clouds,260,2012-10-07 21:53:00
5:53 PM,55.0,27.0,34,30.19,10.0,West,6.9,-,N/A,,Scattered Clouds,260,2012-10-07 22:53:00
6:53 PM,48.9,28.9,46,30.19,10.0,West,6.9,-,N/A,,Partly Cloudy,260,2012-10-07 23:53:00
7:53 PM,45.0,28.9,53,30.20,10.0,SW,4.6,-,N/A,,Partly Cloudy,230,2012-10-08 00:53:00
8:53 PM,43.0,30.0,60,30.21,10.0,SSW,3.5,-,N/A,,Partly Cloudy,210,2012-10-08 01:53:00
9:53 PM,41.0,30.0,65,30.21,10.0,WSW,4.6,-,N/A,,Clear,240,2012-10-08 02:53:00
10:53 PM,39.0,28.9,67,30.20,10.0,South,11.5,-,N/A,,Clear,190,2012-10-08 03:53:00
11:53 PM,39.9,28.0,63,30.19,10.0,SSW,10.4,-,N/A,,Clear,200,2012-10-08 04:53:00